Wahpeton, MN

3:54 AM CDT on July 27, 2017 (GMT -0500)
Stern

Weather History for KBWP - October, 2013

Change the Weather History Date:

Saturday, October 5, 2013

  Actual Average (KFFM) Record (KFFM)
Temperature  
Mean Temperature 48 °F -  
Max Temperature 50 °F 61 °F 93 °F (1963)
Min Temperature 46 °F 38 °F 24 °F (1988)
Degree Days  
Heating Degree Days 17    
Moisture  
Dew Point 45 °F    
Average Humidity 87    
Maximum Humidity 93    
Minimum Humidity 82    
Precipitation  
Precipitation 0.10 in - - ()
Sea Level Pressure  
Sea Level Pressure 29.78 in    
Wind  
Wind Speed 14 mph (NE)    
Max Wind Speed 22 mph    
Max Gust Speed 30 mph    
Visibility 7 miles    
Events      
Averages and records for this station are not official NWS values.
T = Trace of Precipitation, MM = Missing Value Source: NWS Daily Summary

Daily Weather History Graph

Daily Weather History Graph

Search for Another Location

Airport or City:

Trip Planner

Search our weather history database for the weather conditions in past years. The results will help you decide how hot, cold, wet, or windy it might be!

Date:

Astronomy

Oct. 05, 2013 Rise Set
Actual Time 7:30 AM CDT 6:58 PM CDT
Civil Twilight 7:00 AM CDT 7:28 PM CDT
Nautical Twilight 6:25 AM CDT 8:02 PM CDT
Astronomical Twilight 5:50 AM CDT 8:37 PM CDT
Moon 8:15 AM CDT (10/5) 7:12 PM CDT (10/5)
Length of Visible Light 12h 27m
Length of Day
11h 27m
New Moon, 1% of the Moon is Illuminated
Oct 5
New Moon
Oct 11
First Quarter
Oct 18
Full
Oct 26
Last Quarter
Nov 3
New

Hourly Weather History & Observations

Time (CDT) Temp. Windchill Dew Point Humidity Pressure Visibility Wind Dir Wind Speed Gust Speed Precip Events Conditions
2:15 AM 50.0 °F - 44.6 °F 82% 29.81 in 10.0 mi ENE 16.1 mph 28.8 mph N/A   Overcast
2:35 AM 50.0 °F - 44.6 °F 82% 29.80 in 10.0 mi ENE 17.3 mph 25.3 mph N/A   Overcast
3:15 AM 50.0 °F - 44.6 °F 82% 29.77 in 10.0 mi ENE 20.7 mph 27.6 mph N/A   Overcast
3:35 AM 50.0 °F - 44.6 °F 82% 29.76 in 10.0 mi ENE 19.6 mph 29.9 mph N/A   Overcast
4:35 AM 50.0 °F - 44.6 °F 82% 29.75 in 10.0 mi ENE 21.9 mph 27.6 mph N/A   Overcast
5:15 AM 50.0 °F - 44.6 °F 82% 29.74 in 10.0 mi ENE 18.4 mph 27.6 mph N/A   Overcast
5:55 AM 50.0 °F - 44.6 °F 82% 29.74 in 10.0 mi ENE 15.0 mph 21.9 mph N/A   Overcast
6:15 AM 50.0 °F - 44.6 °F 82% 29.74 in 7.0 mi ENE 15.0 mph 21.9 mph N/A   Overcast
6:35 AM 50.0 °F - 46.4 °F 87% 29.74 in 3.0 mi ENE 15.0 mph 21.9 mph N/A   Overcast
6:55 AM 50.0 °F - 46.4 °F 87% 29.74 in 3.0 mi East 16.1 mph 23.0 mph 0.01 in   Overcast
7:35 AM 50.0 °F - 46.4 °F 87% 29.76 in 3.0 mi East 11.5 mph 25.3 mph N/A   Overcast
7:55 AM 50.0 °F - 46.4 °F 87% 29.77 in 1.8 mi East 12.7 mph 18.4 mph N/A   Overcast
7:15 PM 46.4 °F - 42.8 °F 87% 29.79 in 10.0 mi Calm Calm - N/A   Overcast
7:55 PM 46.4 °F 43.5 °F 42.8 °F 87% 29.79 in 10.0 mi North 5.8 mph - N/A   Overcast
8:15 PM 46.4 °F 45.2 °F 42.8 °F 87% 29.80 in 7.0 mi North 3.5 mph - 0.01 in   Overcast
8:35 PM 46.4 °F 44.3 °F 42.8 °F 87% 29.80 in 3.0 mi North 4.6 mph - 0.07 in   Overcast
9:15 PM 46.4 °F 43.5 °F 44.6 °F 93% 29.80 in 5.0 mi NNW 5.8 mph - 0.02 in   Overcast
9:55 PM 46.4 °F 44.3 °F 44.6 °F 93% 29.82 in 10.0 mi North 4.6 mph - 0.02 in   Overcast
10:15 PM 46.4 °F 43.5 °F 44.6 °F 93% 29.82 in 5.0 mi North 5.8 mph - N/A   Overcast
10:55 PM 48.2 °F - 46.4 °F 93% 29.81 in 10.0 mi North 12.7 mph 17.3 mph N/A   Overcast
11:35 PM 46.4 °F 40.7 °F 44.6 °F 93% 29.80 in 4.0 mi North 12.7 mph 18.4 mph N/A   Overcast
11:55 PM 46.4 °F 41.1 °F 44.6 °F 93% 29.80 in 7.0 mi North 11.5 mph - N/A   Overcast